This is the latest recevied weather packets stored in our database for station/object OK1KZE-6. If no packets are shown the sender has not sent any weather packets the latest 1 day(s).
| Time | Temp. | Humidity | Pressure | Rain* | Wind** | Luminosity | Snow |
|---|---|---|---|---|---|---|---|
| 1778049008 | 12.78° C | 89% | 1009.2 hPa | - | - | - | - |
| 1778048407 | 12.78° C | 91% | 1009.1 hPa | - | - | - | - |
| 1778047808 | 12.22° C | 91% | 1008.9 hPa | - | - | - | - |
| 1778047209 | 11.67° C | 92% | 1008.7 hPa | - | - | - | - |
| 1778046308 | 11.67° C | 92% | 1008.8 hPa | - | - | - | - |
| 1778046007 | 11.67° C | 93% | 1009 hPa | - | - | - | - |
| 1778045708 | 11.67° C | 92% | 1008.8 hPa | - | - | - | - |
| 1778045108 | 11.67° C | 91% | 1009 hPa | - | - | - | - |
| 1778044508 | 11.67° C | 91% | 1009.1 hPa | - | - | - | - |
| 1778044208 | 11.67° C | 90% | 1009 hPa | - | - | - | - |
| 1778043908 | 11.67° C | 91% | 1009 hPa | - | - | - | - |
| 1778043609 | 11.67° C | 93% | 1008.9 hPa | - | - | - | - |
| 1778040608 | 11.11° C | 95% | 1008.7 hPa | - | - | - | - |
| 1778040308 | 11.11° C | 96% | 1008.6 hPa | - | - | - | - |
| 1778039408 | 11.11° C | 96% | 1008.2 hPa | - | - | - | - |
| 1778039108 | 10.56° C | 97% | 1008.1 hPa | - | - | - | - |
| 1778038808 | 10.56° C | 98% | 1008.2 hPa | - | - | - | - |
| 1778038508 | 10.56° C | 98% | 1008.1 hPa | - | - | - | - |
| 1778038208 | 10.56° C | 97% | 1008.2 hPa | - | - | - | - |
| 1778037909 | 10.56° C | 97% | 1008.1 hPa | - | - | - | - |
| 1778037608 | 10.56° C | 98% | 1008.2 hPa | - | - | - | - |
| 1778037308 | 10.56° C | 98% | 1008.1 hPa | - | - | - | - |
| 1778036408 | 11.11° C | 97% | 1008 hPa | - | - | - | - |
| 1778035808 | 11.11° C | 98% | 1008.4 hPa | - | - | - | - |
| 1778035208 | 11.11° C | 98% | 1008.4 hPa | - | - | - | - |
* Rain since midnight (hover to see other rain measurements)
** Current wind speed in m/s (hover to see current wind gust speed)